Weather History for Molokai, HI

Change the Weather History Date:

Friday, December 7, 2012

  Actual Average Record
Temperature  
Mean Temperature 73 °F -  
Max Temperature 82 °F 79 °F 85 °F (1977)
Min Temperature 64 °F 66 °F 55 °F (1986)
Cooling Degree Days 8    
Growing Degree Days 23 (Base 50)    
Moisture  
Dew Point 61 °F    
Average Humidity 66    
Maximum Humidity 84    
Minimum Humidity 46    
Precipitation  
Precipitation 0.00 in - - ()
Sea Level Pressure  
Sea Level Pressure 29.97 in    
Wind  
Wind Speed 3 mph (NNW)    
Max Wind Speed 10 mph    
Max Gust Speed 17 mph    
Visibility 10 miles    
Events      
Averages and records for this station are not official NWS values.
T = Trace of Precipitation, MM = Missing Value Source: NWS Daily Summary

Daily Weather History Graph

Daily Weather History Graph

Search for Another Location

Airport:

Trip Planner

Search our weather history database for the weather conditions in past years. The results will help you decide how hot, cold, wet, or windy it might be!

Date:

Astronomy

Dec. 07, 2012 Rise Set
Actual Time 6:53 AM HST 5:46 PM HST
Civil Twilight 6:29 AM HST 6:11 PM HST
Nautical Twilight 6:01 AM HST 6:38 PM HST
Astronomical Twilight 5:34 AM HST 7:05 PM HST
Moon 1:03 AM HST (12/7) 1:15 PM HST (12/7)
Length of Visible Light 11h 41m
Length of Day
10h 53m
Last Quarter, 36% of the Moon is Illuminated
Dec 7
Last Quarter
Dec 12
New
Dec 19
First Quarter
Dec 28
Full
Jan 4
Last Quarter

Hourly Weather History & Observations

Time (HST) Temp. Heat Index Dew Point Humidity Pressure Visibility Wind Dir Wind Speed Gust Speed Precip Events Conditions
12:54 AM 66.9 °F - 62.1 °F 84% 29.97 in 10.0 mi Calm Calm - N/A   Clear
1:54 AM 68.0 °F - 63.0 °F 84% 29.96 in 10.0 mi Calm Calm - N/A   Clear
2:54 AM 64.0 °F - 59.0 °F 84% 29.95 in 10.0 mi Calm Calm - N/A   Clear
3:54 AM 64.9 °F - 60.1 °F 84% 29.96 in 10.0 mi Calm Calm - N/A   Clear
4:54 AM 69.1 °F - 62.1 °F 78% 29.96 in 10.0 mi Calm Calm - N/A   Clear
5:54 AM 66.9 °F - 61.0 °F 81% 29.98 in 10.0 mi NNE 3.5 mph - N/A   Scattered Clouds
6:54 AM 64.9 °F - 60.1 °F 84% 30.00 in 10.0 mi Calm Calm - N/A   Scattered Clouds
7:54 AM 71.1 °F - 63.0 °F 75% 30.02 in 10.0 mi Calm Calm - N/A   Clear
8:54 AM 77.0 °F - 64.0 °F 64% 30.04 in 10.0 mi NW 5.8 mph - N/A   Scattered Clouds
9:54 AM 80.1 °F 81.2 °F 62.1 °F 54% 30.04 in 10.0 mi WNW 5.8 mph - N/A   Partly Cloudy
10:54 AM 82.0 °F 83.0 °F 62.1 °F 51% 30.04 in 10.0 mi NNW 6.9 mph - N/A   Scattered Clouds
11:54 AM 82.0 °F 82.7 °F 61.0 °F 49% 30.01 in 10.0 mi NW 6.9 mph - N/A   Clear
12:54 PM 82.9 °F 83.3 °F 61.0 °F 47% 29.98 in 10.0 mi North 10.4 mph - N/A   Clear
1:54 PM 82.9 °F 83.3 °F 61.0 °F 47% 29.95 in 10.0 mi North 6.9 mph 17.3 mph N/A   Partly Cloudy
2:54 PM 82.9 °F 83.2 °F 60.1 °F 46% 29.92 in 10.0 mi North 9.2 mph - N/A   Clear
3:54 PM 80.1 °F 80.9 °F 60.1 °F 50% 29.92 in 10.0 mi NNE 9.2 mph - N/A   Partly Cloudy
4:54 PM 78.1 °F - 61.0 °F 56% 29.91 in 10.0 mi ENE 6.9 mph - N/A   Scattered Clouds
5:54 PM 77.0 °F - 60.1 °F 56% 29.92 in 10.0 mi ENE 8.1 mph - N/A   Scattered Clouds
6:54 PM 77.0 °F - 59.0 °F 54% 29.92 in 10.0 mi Calm Calm - N/A   Clear
7:54 PM 75.9 °F - 62.1 °F 62% 29.94 in 10.0 mi South 3.5 mph - N/A   Clear
8:54 PM 75.0 °F - 62.1 °F 64% 29.93 in 10.0 mi NNW 3.5 mph - N/A   Clear
9:54 PM 72.0 °F - 62.1 °F 71% 29.95 in 10.0 mi SW 3.5 mph - N/A   Clear
10:54 PM 69.1 °F - 62.1 °F 78% 29.95 in 10.0 mi WNW 4.6 mph - N/A   Clear
11:54 PM 72.0 °F - 63.0 °F 73% 29.95 in 10.0 mi West 6.9 mph - N/A   Clear